Regional Weather Roundup
Issued by NWS Newport/Morehead, NC

Current Version | Previous Version | Text Only | Print | Product List | Glossary Off
Versions: 1 2 3 4 5 6 7 8 9 10 11 12 13 14 15 16 17 18 19 20 21 22 23 24 25 26 27 28 29 30 31 32 33 34 35 36 37 38 39 40 41 42 43 44 45 46 47 48 49 50
000 ASUS42 KMHX 271113 RWRMHX WEATHER ROUNDUP FOR EASTERN NORTH CAROLINA NATIONAL WEATHER SERVICE NEWPORT/MOREHEAD CITY NC 700 AM EDT SAT AUG 27 2016 NOTE: "FAIR" INDICATES FEW OR NO CLOUDS BELOW 12,000 FEET WITH NO SIGNIFICANT WEATHER AND/OR OBSTRUCTIONS TO VISIBILITY NCZ015>017-031-032-045>047-102-103-271200- NORTH COAST CITY SKY/WX TMP DP RH WIND PRES REMARKS EDENTON MOCLDY 80 80 100 SW7 30.10S ELIZABETH CITY MOCLDY 75 74 96 SW3 30.10R KITTY HAWK PTSUNNY 78 76 94 W3 30.09S MANTEO PTCLDY 77 75 93 W5 30.11S $$ NCZ045>047-081-094-103-104-271200- CENTRAL COAST CITY SKY/WX TMP DP RH WIND PRES REMARKS FRISCO CLEAR 75 72 90 W3 30.10R $$ NCZ095-097-098-100-101-271200- SOUTHERN COAST CITY SKY/WX TMP DP RH WIND PRES REMARKS BEAUFORT CLEAR 75 73 93 CALM 30.10R CEDAR ISLAND NOT AVBL JACKSONVILLE CLEAR 72 70 93 CALM 30.10R PINEY ISLAND NOT AVBL WILMINGTON CLEAR 72 70 93 NE3 30.09S $$ NCZ011>013-027>030-043-044-078>080-089-090>093-098-271200- COASTAL PLAIN CITY SKY/WX TMP DP RH WIND PRES REMARKS AHOSKIE CLEAR 74 73 98 CALM 30.10R CLINTON CLEAR 72 72 100 CALM 30.11S FOG ELIZABETHTOWN CLEAR 72 72 100 CALM 30.10S GOLDSBORO CLEAR 74 74 100 SE1 30.09R GREENVILLE CLEAR 75 73 94 CALM 30.12R HAVELOCK CLEAR 74 71 91 CALM 30.11R KENANSVILLE CLEAR 70 68 94 CALM 30.11S FOG KINSTON CLEAR 73 72 94 CALM 30.11R NEW BERN PTCLDY 73 71 93 CALM 30.11S RICHLANDS CLEAR 70 69 97 CALM 30.11R ROCKY MOUNT CLEAR 74 74 100 S3 30.10R WASHINGTON CLEAR 74 71 91 CALM 30.10S WHITEVILLE PTCLDY 72 70 95 CALM 30.09S $$ AMZ130-135-150-152-154-156-158-170-250-252-270-ANZ085-086-088-633-658-670-271200- MARINE OBSERVATIONS STATION/POSITION TIME TEMP WIND PRES WAVE SWELL AIR SEA DIR/SP/G HT/PER HT/PER (UTC) (F) (DEG/KT/KT) (MB) (FT/S) (FT/S) CHESAPEAKE LIGHT NOT AVBL 64 E VA BEACH 1050 80 80 270/ 8/ 10 1018.7 2/ 8 2/ 8 DUCK 1000 80 65 250/ 9/ 11 1018.1 2 E DUCK 1011 78 N/A 2/ 8 2/11 OREGON INLET 1000 79 82 270/ 5/ 7 1018.9 13E OREGON INLT 1000 80 N/A 2/ 9 2/ 9 HATTERAS CG 1000 79 83 240/ 4/ 5 1018.8 DIAMOND BUOY 1050 82 85 280/ 4/ 6 1019.2 3/11 3/11 CAPE LOOKOUT 1100 80 CALM / 1 1018.9 BEAUFORT LAB 1000 79 81 10/ 3/ 4 1018.3 30 SE NEW RVR IN 1008 81 84 90/ 2/ 6 1018.7 30 SE NEW RVR IN 1025 84 N/A 4/10 2/11 27 SE WRIGHTSVLE 1008 81 84 90/ 4/ 6 1018.6 5 SE WRIGHTSVLE 1008 81 83 80/ 2/ 4 1019.5 225 S CAPE HAT 1050 82 84 50/ 10/ 12 1017.0 4/ 9 3/ 9 41 SE CHARLESTON 1050 82 83 50/ 14/ 17 1016.8 4/10 3/10 $$

USA.gov is the U.S. government's official web portal to all federal, state and local government web resources and services.